Simultaneous Nadir Overpasses (SNOs) Predictions

Prediction of SNOs between GOES-17 and METOP-B Satellite Orbit:

Table of predicted SNOs for the next 14.0 days since TLE Epoch: 3/26/2022
Index Date Time (GOES-17) GOES-17 Lat,Lon METOP-B Lat,Lon Distance(km) Time Diff (sec)
1 03/26/2022 06:34:27 -0.03,-137.19 0.13,-136.44 85.40 80
2 03/27/2022 18:55:59 0.03,-137.21 0.90,-141.00 432.96 80
3 03/28/2022 18:32:41 0.03,-137.21 -0.25,-136.02 136.38 80
4 03/30/2022 06:54:21 -0.03,-137.21 -0.79,-140.61 387.82 80
5 03/31/2022 06:31:01 -0.03,-137.21 0.30,-135.61 181.51 80
6 04/01/2022 18:49:55 0.03,-137.22 0.67,-140.18 337.18 80
7 04/02/2022 18:29:15 0.03,-137.22 -0.42,-135.18 231.89 80
8 04/04/2022 06:50:55 -0.03,-137.21 -0.62,-139.78 293.07 80
9 04/05/2022 06:27:37 -0.03,-137.21 0.53,-134.79 275.52 80
10 04/06/2022 18:46:29 0.02,-137.20 0.50,-139.35 244.54 80
11 04/07/2022 18:28:30 0.02,-137.20 -0.60,-134.35 323.57 80
